TimeCDT,TemperatureF,Dew PointF,Humidity,Sea Level PressureIn,VisibilityMPH,Wind Direction,Wind SpeedMPH,Gust SpeedMPH,PrecipitationIn,Events,Conditions,WindDirDegrees,DateUTC
12:15 AM,39.7,36.9,89,29.79,10.0,Calm,Calm,-,N/A,,Light Drizzle,0,2013-10-18 05:15:00
12:35 AM,40.3,37.4,89,29.79,10.0,Calm,Calm,-,N/A,,Overcast,0,2013-10-18 05:35:00
12:55 AM,40.6,38.1,91,29.78,10.0,Calm,Calm,-,N/A,,Light Drizzle,0,2013-10-18 05:55:00
1:15 AM,40.1,38.3,93,29.78,10.0,Calm,Calm,-,N/A,,Overcast,0,2013-10-18 06:15:00
1:35 AM,41.0,39.2,93,29.78,10.0,Calm,Calm,-,N/A,Rain,Light Rain,0,2013-10-18 06:35:00
1:55 AM,40.6,39.2,95,29.78,10.0,Calm,Calm,-,N/A,,Overcast,0,2013-10-18 06:55:00
2:15 AM,41.0,39.0,93,29.77,10.0,Calm,Calm,-,N/A,Rain,Light Rain,0,2013-10-18 07:15:00
2:35 AM,41.0,39.2,93,29.78,10.0,Calm,Calm,-,N/A,,Overcast,0,2013-10-18 07:35:00
2:55 AM,40.8,39.2,94,29.77,10.0,Calm,Calm,-,N/A,,Overcast,0,2013-10-18 07:55:00
3:15 AM,41.9,39.2,90,29.76,10.0,South,3.5,-,0.01,Rain,Light Rain,180,2013-10-18 08:15:00
3:35 AM,41.2,39.4,93,29.76,10.0,SW,4.6,-,0.01,,Overcast,230,2013-10-18 08:35:00
3:55 AM,41.2,39.7,95,29.76,10.0,SSW,3.5,-,0.01,,Overcast,210,2013-10-18 08:55:00
4:15 AM,40.3,39.2,96,29.76,7.0,SSW,4.6,-,N/A,,Overcast,210,2013-10-18 09:15:00
4:35 AM,41.9,39.9,93,29.76,10.0,WSW,4.6,-,N/A,,Overcast,240,2013-10-18 09:35:00
4:55 AM,41.5,40.1,95,29.76,10.0,WSW,4.6,-,N/A,,Overcast,240,2013-10-18 09:55:00
5:15 AM,41.9,40.3,94,29.76,10.0,WSW,4.6,-,N/A,,Overcast,250,2013-10-18 10:15:00
5:35 AM,41.9,40.5,95,29.76,10.0,WSW,4.6,-,N/A,,Overcast,240,2013-10-18 10:35:00
5:55 AM,42.1,40.6,95,29.76,10.0,SW,5.8,-,N/A,,Overcast,230,2013-10-18 10:55:00
6:15 AM,41.9,40.3,94,29.76,10.0,WSW,4.6,-,N/A,,Mostly Cloudy,250,2013-10-18 11:15:00
6:35 AM,40.8,39.4,95,29.76,7.0,SW,4.6,-,N/A,,Mostly Cloudy,220,2013-10-18 11:35:00
6:55 AM,40.5,39.7,97,29.77,5.0,SSW,5.8,-,N/A,,Overcast,210,2013-10-18 11:55:00
7:15 AM,41.5,40.5,96,29.78,7.0,SW,4.6,-,N/A,,Overcast,220,2013-10-18 12:15:00
7:35 AM,42.3,41.0,95,29.78,7.0,SW,4.6,-,N/A,,Overcast,230,2013-10-18 12:35:00
7:55 AM,42.8,41.2,94,29.78,7.0,WSW,8.1,-,N/A,,Overcast,240,2013-10-18 12:55:00
8:15 AM,43.0,41.9,96,29.79,3.0,WSW,6.9,-,N/A,,Overcast,240,2013-10-18 13:15:00
8:35 AM,43.2,41.9,95,29.79,7.0,WSW,9.2,-,N/A,,Overcast,240,2013-10-18 13:35:00
8:55 AM,43.7,41.9,93,29.80,10.0,WSW,9.2,-,N/A,,Overcast,240,2013-10-18 13:55:00
9:15 AM,43.7,41.9,93,29.80,7.0,WSW,8.1,-,N/A,Rain,Light Rain,250,2013-10-18 14:15:00
9:35 AM,43.7,42.1,94,29.81,4.0,WSW,6.9,-,N/A,Rain,Light Rain,250,2013-10-18 14:35:00
9:55 AM,43.7,42.4,95,29.81,5.0,WSW,6.9,-,N/A,Rain,Light Rain,250,2013-10-18 14:55:00
10:15 AM,43.9,42.3,94,29.81,5.0,West,6.9,-,N/A,Rain,Rain,270,2013-10-18 15:15:00
10:35 AM,44.4,42.8,94,29.81,7.0,West,4.6,-,N/A,Rain,Light Rain,280,2013-10-18 15:35:00
10:55 AM,44.1,42.4,94,29.82,4.0,WNW,5.8,-,N/A,Rain,Light Rain,290,2013-10-18 15:55:00
11:15 AM,43.2,41.4,93,29.82,10.0,WNW,6.9,-,N/A,Rain,Light Rain,290,2013-10-18 16:15:00
11:35 AM,43.2,41.0,92,29.83,10.0,West,8.1,-,N/A,,Light Drizzle,280,2013-10-18 16:35:00
11:55 AM,43.3,40.8,91,29.84,10.0,West,5.8,-,N/A,,Overcast,280,2013-10-18 16:55:00
12:15 PM,43.0,40.1,90,29.84,10.0,West,8.1,-,N/A,Rain,Rain,280,2013-10-18 17:15:00
12:35 PM,41.5,39.2,91,29.85,10.0,West,8.1,17.3,N/A,,Light Drizzle,280,2013-10-18 17:35:00
12:55 PM,41.4,39.2,92,29.84,10.0,WNW,8.1,-,N/A,,Drizzle,290,2013-10-18 17:55:00
1:15 PM,41.5,39.0,91,29.85,10.0,West,12.7,18.4,N/A,Rain,Light Rain,270,2013-10-18 18:15:00
1:35 PM,41.5,39.2,91,29.85,7.0,West,10.4,16.1,N/A,Rain,Light Rain,270,2013-10-18 18:35:00
1:55 PM,41.5,38.8,90,29.85,5.0,West,10.4,-,N/A,Rain,Light Rain,270,2013-10-18 18:55:00
2:15 PM,41.9,38.5,88,29.85,10.0,West,5.8,9.2,N/A,Rain,Light Rain,280,2013-10-18 19:15:00
2:35 PM,41.9,38.3,87,29.85,10.0,WNW,10.4,-,N/A,Rain,Light Rain,290,2013-10-18 19:35:00
2:55 PM,41.4,38.1,88,29.86,10.0,West,9.2,-,N/A,,Overcast,270,2013-10-18 19:55:00
3:15 PM,41.0,38.3,90,29.87,7.0,WNW,9.2,-,0.01,,Overcast,290,2013-10-18 20:15:00
3:35 PM,41.0,38.3,90,29.87,5.0,WNW,8.1,-,0.01,Rain,Light Rain,290,2013-10-18 20:35:00
3:55 PM,40.5,37.4,89,29.87,10.0,WNW,10.4,-,0.01,,Overcast,300,2013-10-18 20:55:00
4:15 PM,40.3,37.2,89,29.87,10.0,WNW,8.1,-,N/A,,Overcast,300,2013-10-18 21:15:00
4:35 PM,41.2,37.4,86,29.87,10.0,WNW,5.8,-,N/A,,Overcast,290,2013-10-18 21:35:00
4:55 PM,41.2,36.7,84,29.88,10.0,NW,5.8,-,N/A,,Overcast,310,2013-10-18 21:55:00
5:15 PM,41.0,36.5,84,29.88,10.0,NNW,5.8,-,N/A,,Overcast,330,2013-10-18 22:15:00
5:35 PM,40.6,35.1,80,29.89,10.0,NW,5.8,-,N/A,,Overcast,310,2013-10-18 22:35:00
5:55 PM,40.5,35.1,81,29.89,10.0,WNW,3.5,-,N/A,,Overcast,300,2013-10-18 22:55:00
6:15 PM,40.1,34.9,82,29.89,10.0,Calm,Calm,-,N/A,,Mostly Cloudy,0,2013-10-18 23:15:00
6:35 PM,39.6,35.1,84,29.89,10.0,Calm,Calm,-,N/A,,Scattered Clouds,0,2013-10-18 23:35:00
6:55 PM,38.3,35.4,89,29.89,10.0,Calm,Calm,-,N/A,,Clear,0,2013-10-18 23:55:00
7:15 PM,37.8,35.1,90,29.90,10.0,West,3.5,-,N/A,,Clear,270,2013-10-19 00:15:00
7:35 PM,37.0,35.2,93,29.91,10.0,Calm,Calm,-,N/A,,Clear,0,2013-10-19 00:35:00
7:55 PM,34.3,33.3,96,29.91,10.0,Calm,Calm,-,N/A,,Clear,0,2013-10-19 00:55:00
8:15 PM,34.2,33.4,97,29.91,10.0,Calm,Calm,-,N/A,,Clear,0,2013-10-19 01:15:00
8:35 PM,34.0,33.4,98,29.91,10.0,Calm,Calm,-,N/A,,Clear,0,2013-10-19 01:35:00
8:55 PM,33.4,32.7,97,29.91,10.0,Calm,Calm,-,N/A,,Clear,0,2013-10-19 01:55:00
9:15 PM,32.9,32.4,98,29.90,10.0,Calm,Calm,-,N/A,,Clear,0,2013-10-19 02:15:00
9:35 PM,32.0,32.0,100,29.90,10.0,Calm,Calm,-,N/A,,Clear,0,2013-10-19 02:35:00
9:55 PM,32.5,32.2,99,29.90,10.0,Calm,Calm,-,N/A,,Clear,0,2013-10-19 02:55:00
10:15 PM,32.7,32.4,99,29.90,10.0,Calm,Calm,-,N/A,,Clear,0,2013-10-19 03:15:00
10:35 PM,32.0,31.8,99,29.89,10.0,Calm,Calm,-,N/A,,Clear,0,2013-10-19 03:35:00
10:55 PM,31.6,31.5,99,29.89,10.0,Calm,Calm,-,N/A,,Clear,0,2013-10-19 03:55:00
11:15 PM,32.0,32.0,100,29.89,10.0,Calm,Calm,-,N/A,,Clear,0,2013-10-19 04:15:00
11:35 PM,32.0,32.0,100,29.88,10.0,Calm,Calm,-,N/A,,Clear,0,2013-10-19 04:35:00
11:55 PM,31.8,31.5,99,29.88,10.0,Calm,Calm,-,N/A,,Clear,0,2013-10-19 04:55:00